Location: DaVinci Observatory
(43.1080°N, 78.6453°W)
Time: 01:49:55
(UTC-04:00)

N. Korean satellite - Pass Details

Date: 12 October 2017
Orbit: 459 x 517 km, 97.2° (Epoch: 22 October)

Event Time Altitude Azimuth Distance (km) Brightness Sun altitude
Rises 20:10:31 0° 203° (SSW) 2,556 10.4 -18.0°
Reaches altitude 10° 20:13:07 10° 223° (SW) 1,668 9.8 -18.5°
Maximum altitude 20:15:35 17° 267° (W) 1,270 9.7 -18.9°
Drops below altitude 10° 20:18:01 10° 310° (NW) 1,656 10.1 -19.3°
Sets 20:20:37 0° 331° (NNW) 2,529 10.7 -19.8°
